Zurück zum Katalog

SL-16 DEB

AktivLEO
NORAD 25412·DEBRIS·🇷🇺 Russia

Gestartet Jul 28, 1998 von Baikonur Cosmodrome

Loading…

Nächste Überflüge (nächste 24 Stunden)

TLE

AktuellSource: Space-Track

Epoche: Sep 14, 2026, 09:25 UTC

1 25412U 98045F   26257.39267655  .00000056  00000-0  87776-4 0  9995
2 25412  71.0813 152.3383 0182553  84.3707  32.4300 13.76923222412640

Verfolge SL-16 DEB in Echtzeit mit AllMySat

Download on the App Store